This is the latest recevied weather packets stored in our database for station/object K9MWD. If no packets are shown the sender has not sent any weather packets the latest 10 day(s).
| Time | Temp. | Humidity | Pressure | Rain* | Wind** | Luminosity | Snow |
|---|---|---|---|---|---|---|---|
| 1788033616 | 39.44° C | 33% | 1015.7 hPa | 0 mm | - | 806 W/m² | - |
| 1788033315 | 38.89° C | 34% | 1015.8 hPa | 0 mm | - | 819 W/m² | - |
| 1788033011 | 38.33° C | 35% | 1016 hPa | 0 mm | - | 828 W/m² | - |
| 1788032710 | 37.78° C | 36% | 1016 hPa | 0 mm | - | 852 W/m² | - |
| 1788032405 | 38.33° C | 36% | 1016 hPa | 0 mm | - | 847 W/m² | - |
| 1788032101 | 38.33° C | 35% | 1016.2 hPa | 0 mm | - | 844 W/m² | - |
| 1788031796 | 38.33° C | 36% | 1016.3 hPa | 0 mm | - | 855 W/m² | - |
| 1788031491 | 38.33° C | 35% | 1016.3 hPa | 0 mm | - | 843 W/m² | - |
| 1788031190 | 37.22° C | 36% | 1016.4 hPa | 0 mm | - | 856 W/m² | - |
| 1788030885 | 37.22° C | 36% | 1016.5 hPa | 0 mm | - | 858 W/m² | - |
| 1788030584 | 37.22° C | 37% | 1016.5 hPa | 0 mm | - | 863 W/m² | - |
| 1788030279 | 37.78° C | 35% | 1016.8 hPa | 0 mm | - | 867 W/m² | - |
| 1788029975 | 37.22° C | 36% | 1016.6 hPa | 0 mm | - | 864 W/m² | - |
| 1788029670 | 36.67° C | 37% | 1016.9 hPa | 0 mm | - | 866 W/m² | - |
| 1788029365 | 37.78° C | 36% | 1016.8 hPa | 0 mm | - | 869 W/m² | - |
| 1788029063 | 36.67° C | 36% | 1016.8 hPa | 0 mm | - | 867 W/m² | - |
| 1788028764 | 37.78° C | 37% | 1017 hPa | 0 mm | - | 869 W/m² | - |
| 1788028458 | 37.22° C | 37% | 1017 hPa | 0 mm | - | 870 W/m² | - |
| 1788028154 | 37.78° C | 36% | 1017.1 hPa | 0 mm | - | 869 W/m² | - |
| 1788027849 | 37.22° C | 37% | 1017.4 hPa | 0 mm | - | 869 W/m² | - |
| 1788027549 | 36.67° C | 37% | 1017.4 hPa | 0 mm | - | 870 W/m² | - |
| 1788027248 | 37.22° C | 36% | 1017.3 hPa | 0 mm | - | 870 W/m² | - |
| 1788026948 | 37.22° C | 37% | 1017.3 hPa | 0 mm | - | 867 W/m² | - |
| 1788026643 | 37.22° C | 37% | 1017.3 hPa | 0 mm | - | 865 W/m² | - |
| 1788026338 | 36.11° C | 40% | 1017.6 hPa | 0 mm | - | 867 W/m² | - |
* Rain latest hour (hover to see other rain measurements)
** Current wind speed in m/s (hover to see current wind gust speed)